Simultaneous Nadir Overpasses (SNOs) Predictions

Prediction of SNOs between GOES-16 and LANDSAT-8 Satellite Orbit:

Table of predicted SNOs for the next 14.0 days since TLE Epoch: 2/26/2022
Index Date Time (GOES-16) GOES-16 Lat,Lon LANDSAT-8 Lat,Lon Distance(km) Time Diff (sec)
1 02/26/2022 15:00:25 0.04, -75.22 -0.57, -72.43 317.71 80
2 02/27/2022 03:24:29 -0.04, -75.20 -0.55, -77.62 275.35 80
3 03/01/2022 03:09:37 -0.04, -75.20 0.06, -74.66 61.24 80
4 03/03/2022 02:57:26 -0.05, -75.22 0.72, -71.71 398.90 80
5 03/03/2022 15:21:21 0.05, -75.25 0.40, -76.87 184.14 80
6 03/05/2022 15:06:29 0.05, -75.27 -0.21, -73.91 154.64 80
7 03/06/2022 03:30:34 -0.05, -75.26 -0.84, -79.11 437.57 80
8 03/07/2022 14:54:18 0.05, -75.30 -0.89, -70.96 493.86 80
9 03/08/2022 03:18:22 -0.05, -75.29 -0.22, -76.15 98.23 80
10 03/10/2022 03:03:30 -0.04, -75.32 0.40, -73.20 241.42 80
11 03/10/2022 15:27:26 0.04, -75.35 0.66, -78.36 341.41 80
